{"data":{"norad_id":58007,"epoch":"2026-09-20T04:12:03.345408Z","epoch_age_seconds":165641,"freshness":"FRESH","line1":"1 58007U 23153S   26263.17503872 -.00002070  00000+0 -65738-4 0  9999","line2":"2 58007  43.0027 180.0320 0001918 255.1182 104.9458 15.27568601167203","mean_motion":15.27568601,"eccentricity":0.0001918,"inclination_deg":43.0027,"raan_deg":180.032,"arg_perigee_deg":255.1182,"mean_anomaly_deg":104.9458,"bstar":-6.5738e-5,"rev_number":16720,"period_min":94.267452149601,"perigee_km":481.76724691876,"apogee_km":484.39921099859,"semimajor_km":6861.2202289587,"source":"CELESTRAK","updated_at":"2026-09-21T09:00:33.756075Z"}}